When you browse on this site, cookies collect data to enhance your experience and personalize the content and advertising you see.
Visit our Privacy Policy to learn more. By continuing to use the site, you agree to this use of cookies and data.
  • In Österreich
  • Länderverzeichnis
  • Für 7 Tage
  • Wassertemperatur
  • Satellitenkarten
  • Wetterkarte
  • News
  • Widgets
  • user-avatar
    Anmelden

    Stündliche Wetter Mansa

    Heute, 18 November, Sonntag

    Zeit Temperatur Niederschläge Wind Luftdruck Luftfeuchtigkeit
    00:00 +23°C° 0.4 mm 2 m/S 660 mmHg 76%
    01:00 +23°C° 0.4 mm 1 m/S 660 mmHg 78%
    02:00 +22°C° 0 mm 1 m/S 660 mmHg 84%
    03:00 +22°C° 0.4 mm 1 m/S 660 mmHg 85%
    04:00 +22°C° 0.4 mm 1 m/S 660 mmHg 86%
    05:00 +21°C° 0.4 mm 1 m/S 660 mmHg 87%
    06:00 +22°C° 0.3 mm 1 m/S 660 mmHg 85%
    07:00 +23°C° 0.3 mm 1 m/S 660 mmHg 82%
    08:00 +24°C° 0 mm 2 m/S 661 mmHg 78%
    09:00 +26°C° 0 mm 2 m/S 661 mmHg 68%
    10:00 +28°C° 0 mm 2 m/S 661 mmHg 59%
    11:00 +30°C° 0 mm 2 m/S 661 mmHg 49%
    12:00 +30°C° 0 mm 2 m/S 661 mmHg 47%
    13:00 +31°C° 0 mm 2 m/S 660 mmHg 44%
    14:00 +30°C° 0 mm 3 m/S 660 mmHg 44%
    15:00 +30°C° 0 mm 2 m/S 660 mmHg 45%
    16:00 +30°C° 0 mm 2 m/S 659 mmHg 45%
    17:00 +29°C° 0 mm 1 m/S 659 mmHg 46%
    18:00 +27°C° 0.4 mm 1 m/S 659 mmHg 54%
    19:00 +25°C° 0.4 mm 1 m/S 659 mmHg 62%
    20:00 +23°C° 0.4 mm 1 m/S 659 mmHg 70%
    21:00 +23°C° 0.5 mm 1 m/S 659 mmHg 72%
    22:00 +22°C° 0.5 mm 1 m/S 659 mmHg 73%
    23:00 +20°C° 0.5 mm 0 m/S 659 mmHg 75%

    Morgen, 19 November, Montag

    Zeit Temperatur Niederschläge Wind Luftdruck Luftfeuchtigkeit
    00:00 +20°C° 0.8 mm 0 m/S 659 mmHg 77%
    01:00 +19°C° 0.8 mm 0 m/S 659 mmHg 79%
    02:00 +19°C° 0.8 mm 0 m/S 659 mmHg 81%
    03:00 +19°C° 1.4 mm 0 m/S 659 mmHg 84%
    04:00 +18°C° 1.4 mm 0 m/S 659 mmHg 88%
    05:00 +18°C° 1.4 mm 0 m/S 659 mmHg 91%
    06:00 +19°C° 0.9 mm 0 m/S 659 mmHg 89%
    07:00 +20°C° 0.9 mm 0 m/S 660 mmHg 86%
    08:00 +21°C° 0.9 mm 0 m/S 661 mmHg 84%
    09:00 +23°C° 1 mm 0 m/S 661 mmHg 76%
    10:00 +27°C° 1 mm 1 m/S 661 mmHg 68%
    11:00 +28°C° 1 mm 1 m/S 662 mmHg 60%
    12:00 +29°C° 0.4 mm 1 m/S 661 mmHg 58%
    13:00 +29°C° 0.4 mm 2 m/S 660 mmHg 56%
    14:00 +29°C° 0.4 mm 2 m/S 660 mmHg 55%
    15:00 +28°C° 0 mm 2 m/S 659 mmHg 57%
    16:00 +28°C° 0 mm 2 m/S 659 mmHg 59%
    17:00 +27°C° 0 mm 1 m/S 659 mmHg 60%
    18:00 +26°C° 0.1 mm 1 m/S 659 mmHg 66%
    19:00 +24°C° 0.1 mm 1 m/S 659 mmHg 71%
    20:00 +23°C° 0.1 mm 1 m/S 659 mmHg 76%
    21:00 +23°C° 0.1 mm 1 m/S 659 mmHg 78%
    22:00 +22°C° 0.1 mm 1 m/S 659 mmHg 79%
    23:00 +20°C° 0.1 mm 0 m/S 660 mmHg 81%

    übermorgen, 20 November, Dienstag

    Zeit Temperatur Niederschläge Wind Luftdruck Luftfeuchtigkeit
    00:00 +20°C° 0.5 mm 0 m/S 659 mmHg 83%
    01:00 +19°C° 0.5 mm 0 m/S 659 mmHg 84%
    02:00 +19°C° 0.5 mm 0 m/S 659 mmHg 86%
    03:00 +19°C° 0.2 mm 0 m/S 659 mmHg 86%
    04:00 +19°C° 0.2 mm 0 m/S 659 mmHg 86%
    05:00 +21°C° 0.2 mm 1 m/S 659 mmHg 86%
    06:00 +22°C° 0 mm 1 m/S 659 mmHg 82%
    07:00 +23°C° 0 mm 1 m/S 660 mmHg 77%
    08:00 +24°C° 0 mm 1 m/S 661 mmHg 73%
    09:00 +26°C° 0 mm 1 m/S 661 mmHg 64%
    10:00 +28°C° 0 mm 1 m/S 661 mmHg 56%
    11:00 +31°C° 0 mm 1 m/S 662 mmHg 47%
    12:00 +32°C° 0 mm 1 m/S 661 mmHg 44%
    13:00 +33°C° 0 mm 1 m/S 660 mmHg 41%
    14:00 +34°C° 0 mm 1 m/S 660 mmHg 38%
    15:00 +33°C° 0 mm 1 m/S 659 mmHg 41%
    16:00 +32°C° 0 mm 1 m/S 659 mmHg 44%
    17:00 +30°C° 0 mm 1 m/S 658 mmHg 47%
    18:00 +29°C° 0 mm 1 m/S 659 mmHg 51%
    19:00 +27°C° 0 mm 1 m/S 659 mmHg 55%
    20:00 +25°C° 0 mm 1 m/S 659 mmHg 59%
    21:00 +25°C° 0.2 mm 1 m/S 659 mmHg 64%
    22:00 +24°C° 0.2 mm 1 m/S 659 mmHg 69%
    23:00 +23°C° 0.2 mm 1 m/S 659 mmHg 74%

    21 November, Mittwoch

    Zeit Temperatur Niederschläge Wind Luftdruck Luftfeuchtigkeit
    00:00 +23°C° 0.3 mm 1 m/S 659 mmHg 78%
    01:00 +22°C° 0.3 mm 1 m/S 658 mmHg 82%
    02:00 +21°C° 0.3 mm 1 m/S 658 mmHg 87%
    03:00 +21°C° 0.3 mm 1 m/S 658 mmHg 88%
    04:00 +21°C° 0.3 mm 1 m/S 658 mmHg 88%
    05:00 +19°C° 0.3 mm 0 m/S 658 mmHg 89%
    06:00 +21°C° 0 mm 0 m/S 659 mmHg 82%
    07:00 +23°C° 0 mm 0 m/S 660 mmHg 74%
    08:00 +25°C° 0 mm 0 m/S 661 mmHg 67%
    09:00 +27°C° 0 mm 0 m/S 661 mmHg 58%
    10:00 +32°C° 0 mm 1 m/S 662 mmHg 48%
    11:00 +35°C° 0 mm 1 m/S 662 mmHg 39%
    12:00 +35°C° 0 mm 1 m/S 661 mmHg 36%
    13:00 +36°C° 0 mm 1 m/S 660 mmHg 32%
    14:00 +36°C° 0 mm 1 m/S 659 mmHg 29%
    15:00 +35°C° 0 mm 1 m/S 659 mmHg 33%
    16:00 +33°C° 0 mm 1 m/S 658 mmHg 36%
    17:00 +31°C° 0 mm 1 m/S 657 mmHg 40%
    18:00 +30°C° 0 mm 1 m/S 658 mmHg 43%
    19:00 +29°C° 0 mm 1 m/S 658 mmHg 46%
    20:00 +27°C° 0 mm 1 m/S 659 mmHg 49%
    21:00 +26°C° 0 mm 1 m/S 659 mmHg 53%
    22:00 +26°C° 0 mm 1 m/S 659 mmHg 58%
    23:00 +25°C° 0 mm 2 m/S 659 mmHg 62%

    22 November, Donnerstag

    Zeit Temperatur Niederschläge Wind Luftdruck Luftfeuchtigkeit
    00:00 +24°C° 0 mm 1 m/S 658 mmHg 65%
    01:00 +24°C° 0 mm 1 m/S 658 mmHg 67%
    02:00 +23°C° 0 mm 1 m/S 658 mmHg 69%
    03:00 +23°C° 0 mm 1 m/S 658 mmHg 72%
    04:00 +22°C° 0 mm 1 m/S 658 mmHg 74%
    05:00 +22°C° 0 mm 1 m/S 658 mmHg 77%
    06:00 +23°C° 0 mm 1 m/S 659 mmHg 73%
    07:00 +24°C° 0 mm 2 m/S 660 mmHg 70%
    08:00 +26°C° 0 mm 2 m/S 661 mmHg 66%
    09:00 +27°C° 0 mm 2 m/S 661 mmHg 59%
    10:00 +29°C° 0 mm 2 m/S 661 mmHg 53%
    11:00 +31°C° 0 mm 2 m/S 661 mmHg 46%
    12:00 +32°C° 0 mm 2 m/S 660 mmHg 45%
    13:00 +32°C° 0 mm 1 m/S 659 mmHg 43%
    14:00 +32°C° 0 mm 1 m/S 659 mmHg 42%
    15:00 +31°C° 0 mm 1 m/S 658 mmHg 45%
    16:00 +31°C° 0 mm 2 m/S 658 mmHg 48%
    17:00 +30°C° 0 mm 2 m/S 658 mmHg 51%
    18:00 +28°C° 0.5 mm 2 m/S 658 mmHg 57%
    19:00 +27°C° 0.5 mm 2 m/S 658 mmHg 62%
    20:00 +25°C° 0.5 mm 2 m/S 659 mmHg 68%
    21:00 +24°C° 1.8 mm 2 m/S 659 mmHg 74%
    22:00 +23°C° 1.8 mm 2 m/S 659 mmHg 80%
    23:00 +23°C° 1.8 mm 2 m/S 659 mmHg 86%

    23 November, Freitag

    Zeit Temperatur Niederschläge Wind Luftdruck Luftfeuchtigkeit
    00:00 +21°C° 0 mm 2 m/S 659 mmHg 86%
    01:00 +21°C° 0 mm 2 m/S 658 mmHg 87%
    02:00 +21°C° 0 mm 2 m/S 658 mmHg 88%
    03:00 +22°C° 0 mm 1 m/S 658 mmHg 88%
    04:00 +21°C° 0 mm 1 m/S 658 mmHg 89%
    05:00 +19°C° 0 mm 0 m/S 658 mmHg 89%
    06:00 +22°C° 0.4 mm 1 m/S 659 mmHg 85%
    07:00 +24°C° 0.4 mm 1 m/S 660 mmHg 80%
    08:00 +25°C° 0.4 mm 1 m/S 661 mmHg 75%
    09:00 +26°C° 0.9 mm 1 m/S 661 mmHg 69%
    10:00 +28°C° 0.9 mm 1 m/S 661 mmHg 63%
    11:00 +29°C° 0.9 mm 2 m/S 661 mmHg 56%
    12:00 +30°C° 0.3 mm 2 m/S 660 mmHg 52%
    13:00 +31°C° 0.3 mm 1 m/S 660 mmHg 48%
    14:00 +32°C° 0.3 mm 1 m/S 660 mmHg 44%
    15:00 +31°C° 0 mm 1 m/S 659 mmHg 50%
    16:00 +29°C° 0 mm 1 m/S 659 mmHg 55%
    17:00 +28°C° 0 mm 1 m/S 659 mmHg 60%
    18:00 +27°C° 0 mm 1 m/S 659 mmHg 64%
    19:00 +26°C° 0 mm 1 m/S 659 mmHg 68%
    20:00 +24°C° 0 mm 1 m/S 659 mmHg 72%
    21:00 +24°C° 0.2 mm 1 m/S 659 mmHg 75%
    22:00 +23°C° 0.2 mm 1 m/S 659 mmHg 77%
    23:00 +21°C° 0.2 mm 0 m/S 659 mmHg 80%
    Mehr zeigen